Weather History for Lewistown, MT

Change the Weather History Date:

Friday, July 5, 2013

  Actual Average Record
Temperature  
Mean Temperature 66 °F 63 °F  
Max Temperature 77 °F 78 °F 99 °F (1936)
Min Temperature 55 °F 49 °F 35 °F (1903)
Degree Days  
Heating Degree Days 0 4  
Month to date heating degree days 0 20  
Since 1 June heating degree days 220 247  
Since 1 July heating degree days 0 20  
Cooling Degree Days 1 2  
Month to date cooling degree days 29 10  
Year to date cooling degree days 48 32  
Since 1 June cooling degree days 45 30  
Growing Degree Days 16 (Base 50)    
Moisture  
Dew Point 54 °F    
Average Humidity 68    
Maximum Humidity 93    
Minimum Humidity 43    
Precipitation  
Precipitation 0.34 in 0.07 in 1.50 in (1903)
Month to date precipitation 0.35 0.37  
Year to date precipitation 14.54 9.71  
Snow  
Snow 0.00 in - - ()
Snow Depth 0.00 in    
Sea Level Pressure  
Sea Level Pressure 29.78 in    
Wind  
Wind Speed 8 mph (West)    
Max Wind Speed 22 mph    
Max Gust Speed 26 mph    
Visibility 9 miles    
Events Rain    
T = Trace of Precipitation, MM = Missing Value Source: NWS Daily Summary

Daily Weather History Graph

Daily Weather History Graph

Search for Another Location

Airport:

Trip Planner

Search our weather history database for the weather conditions in past years. The results will help you decide how hot, cold, wet, or windy it might be!

Date:

Astronomy

Jul. 05, 2013 Rise Set
Actual Time 5:29 AM MDT 9:15 PM MDT
Civil Twilight 4:50 AM MDT 9:54 PM MDT
Nautical Twilight 3:56 AM MDT 10:47 PM MDT
Astronomical Twilight 2:40 AM MDT 12:02 AM MDT
Moon 3:35 AM MDT (7/5) 7:09 PM MDT (7/5)
Length of Visible Light 17h 04m
Length of Day
15h 45m
Waning Crescent, 6% of the Moon is Illuminated
Jul 5
Waning Crescent
Jul 8
New
Jul 15
First Quarter
Jul 22
Full
Jul 29
Last Quarter

Hourly Weather History & Observations

Time (MDT) Temp. Dew Point Humidity Pressure Visibility Wind Dir Wind Speed Gust Speed Precip Events Conditions
12:54 AM 60.1 °F 54.0 °F 80% 29.71 in 10.0 mi SE 6.9 mph - N/A   Clear
1:54 AM 59.0 °F 54.0 °F 83% 29.71 in 10.0 mi SSW 4.6 mph - N/A   Clear
2:54 AM 55.9 °F 54.0 °F 93% 29.73 in 10.0 mi SE 5.8 mph - N/A   Partly Cloudy
3:54 AM 57.0 °F 54.0 °F 89% 29.72 in 10.0 mi SSE 4.6 mph - N/A   Clear
4:54 AM 57.0 °F 53.1 °F 87% 29.73 in 10.0 mi Calm Calm - N/A   Clear
5:54 AM 57.0 °F 53.1 °F 87% 29.75 in 10.0 mi SSW 8.1 mph - N/A   Clear
6:54 AM 60.1 °F 53.1 °F 78% 29.76 in 10.0 mi SW 8.1 mph - N/A   Clear
7:54 AM 64.0 °F 53.1 °F 67% 29.78 in 10.0 mi SW 10.4 mph - N/A   Clear
8:54 AM 68.0 °F 48.9 °F 50% 29.78 in 10.0 mi NW 9.2 mph - N/A   Clear
9:54 AM 69.1 °F 50.0 °F 51% 29.80 in 10.0 mi WNW 12.7 mph 17.3 mph N/A   Clear
10:54 AM 66.0 °F 53.1 °F 63% 29.83 in 10.0 mi NW 6.9 mph - N/A   Clear
11:54 AM 68.0 °F 53.1 °F 59% 29.82 in 10.0 mi NW 6.9 mph - N/A   Clear
12:54 PM 71.1 °F 55.0 °F 57% 29.81 in 10.0 mi NNW 5.8 mph - N/A   Clear
1:54 PM 73.9 °F 55.0 °F 52% 29.78 in 10.0 mi NW 5.8 mph - N/A   Clear
2:54 PM 75.9 °F 53.1 °F 45% 29.78 in 10.0 mi West 10.4 mph 17.3 mph N/A   Scattered Clouds
3:54 PM 75.9 °F 53.1 °F 45% 29.77 in 10.0 mi North 8.1 mph - N/A   Clear
4:54 PM 77.0 °F 53.1 °F 43% 29.76 in 10.0 mi North 9.2 mph - N/A   Partly Cloudy
5:54 PM 75.9 °F 52.0 °F 43% 29.74 in 10.0 mi NNE 6.9 mph - N/A   Clear
6:54 PM 75.9 °F 52.0 °F 43% 29.71 in 10.0 mi North 11.5 mph - N/A   Mostly Cloudy
7:54 PM 70.0 °F 52.0 °F 53% 29.73 in 10.0 mi NNE 5.8 mph - N/A   Mostly Cloudy
8:54 PM 64.0 °F 57.0 °F 78% 29.79 in 10.0 mi South 16.1 mph - 0.03 in Rain Light Rain
9:15 PM 60.8 °F 57.2 °F 88% 29.94 in 2.5 mi West 16.1 mph 26.5 mph 0.15 in Rain Heavy Rain
9:24 PM 57.2 °F 55.4 °F 94% 29.93 in 1.8 mi West 12.7 mph 23.0 mph 0.24 in Rain Heavy Rain
9:30 PM 57.2 °F 55.4 °F 94% 29.92 in 3.0 mi SW 3.5 mph 20.7 mph 0.26 in Rain Rain
9:54 PM 57.9 °F 55.9 °F 93% 29.81 in 9.0 mi SE 12.7 mph - 0.31 in Rain Light Rain
10:54 PM 59.0 °F 57.0 °F 93% 29.79 in 10.0 mi East 5.8 mph - 0.00 in   Clear
11:54 PM 57.0 °F 55.0 °F 93% 29.77 in 10.0 mi SE 3.5 mph - N/A   Clear